This is the latest recevied weather packets stored in our database for station/object N7WSS. If no packets are shown the sender has not sent any weather packets the latest 10 day(s).
| Time | Temp. | Humidity | Pressure | Rain* | Wind** | Luminosity | Snow |
|---|---|---|---|---|---|---|---|
| 1787701267 | 40.56° C | 23% | 1010.8 hPa | 0 mm | - | - | - |
| 1787700962 | 40.56° C | 23% | 1010.8 hPa | 0 mm | - | - | - |
| 1787700657 | 40° C | 24% | 1010.8 hPa | 0 mm | - | - | - |
| 1787700354 | 40° C | 22% | 1010.9 hPa | 0 mm | - | - | - |
| 1787700049 | 40° C | 22% | 1010.8 hPa | 0 mm | - | - | - |
| 1787699745 | 41.11° C | 22% | 1010.9 hPa | 0 mm | - | - | - |
| 1787699440 | 41.11° C | 22% | 1010.9 hPa | 0 mm | - | - | - |
| 1787699136 | 41.11° C | 22% | 1011.1 hPa | 0 mm | - | - | - |
| 1787698832 | 40.56° C | 22% | 1011.2 hPa | 0 mm | - | - | - |
| 1787698527 | 41.11° C | 22% | 1011.1 hPa | 0 mm | - | - | - |
| 1787698224 | 41.67° C | 22% | 1011.1 hPa | 0 mm | - | - | - |
| 1787697919 | 41.11° C | 22% | 1011.1 hPa | 0 mm | - | - | - |
| 1787697619 | 40.56° C | 22% | 1011.3 hPa | 0 mm | - | - | - |
| 1787697314 | 41.11° C | 23% | 1011.2 hPa | 0 mm | - | - | - |
| 1787697010 | 41.67° C | 22% | 1011.4 hPa | 0 mm | - | - | - |
| 1787696705 | 41.67° C | 22% | 1011.5 hPa | 0 mm | - | - | - |
| 1787696401 | 40.56° C | 23% | 1011.6 hPa | 0 mm | - | - | - |
| 1787696096 | 40.56° C | 23% | 1011.4 hPa | 0 mm | - | - | - |
| 1787695795 | 40.56° C | 23% | 1011.7 hPa | 0 mm | - | - | - |
| 1787695491 | 40.56° C | 23% | 1011.7 hPa | 0 mm | - | - | - |
| 1787695186 | 40.56° C | 22% | 1011.8 hPa | 0 mm | - | - | - |
| 1787694885 | 41.11° C | 22% | 1011.9 hPa | 0 mm | - | - | - |
| 1787694581 | 41.11° C | 22% | 1012 hPa | 0 mm | - | - | - |
| 1787694281 | 41.11° C | 22% | 1012.3 hPa | 0 mm | - | - | - |
| 1787693976 | 42.22° C | 22% | 1012.3 hPa | 0 mm | - | - | - |
* Rain latest hour (hover to see other rain measurements)
** Current wind speed in m/s (hover to see current wind gust speed)